Wetterdaten: Woche 18.01.16 - 24.01.16 (KW3)
Datum Zeit Temp. Aussen Temp. o. S. +5cm Feuchte Auss BlattFeu 1 Luftdruck Regen Sonnenschein Regendauer Solar Windben Empfang
18.01.2016 00:00 -4,9 C -5,8 C -6,4 C 93 % 0 lf 1025,2 hPa 0,0 l/m 0,00 h 0,00 h 0 W/m 0,3 km/h (0 Bft) 96,74 %
18.01.2016 01:00 -5,3 C -5,5 C -6,7 C 93 % 0 lf 1024,6 hPa 0,0 l/m 0,00 h 0,00 h 0 W/m 2,4 km/h (1 Bft) 95,75 %
18.01.2016 02:00 -5,5 C -5,9 C -6,7 C 94 % 0 lf 1024,1 hPa 0,0 l/m 0,00 h 0,00 h 0 W/m 2,8 km/h (1 Bft) 96,68 %
18.01.2016 03:00 -5,7 C -6,1 C -6,9 C 94 % 0 lf 1023,8 hPa 0,0 l/m 0,00 h 0,00 h 0 W/m 2,0 km/h (1 Bft) 97,80 %
18.01.2016 04:00 -5,7 C -5,8 C -6,7 C 94 % 0 lf 1023,1 hPa 0,0 l/m 0,00 h 0,00 h 0 W/m 4,5 km/h (1 Bft) 93,11 %
18.01.2016 05:00 -5,5 C -5,8 C -6,7 C 95 % 0 lf 1022,6 hPa 0,0 l/m 0,00 h 0,00 h 0 W/m 5,6 km/h (1 Bft) 98,18 %
18.01.2016 06:00 -5,6 C -5,8 C -6,4 C 95 % 0 lf 1022,2 hPa 0,0 l/m 0,00 h 0,00 h 0 W/m 6,2 km/h (2 Bft) 98,08 %
18.01.2016 07:00 -5,5 C -5,7 C -6,4 C 95 % 0 lf 1021,8 hPa 0,0 l/m 0,00 h 0,00 h 0 W/m 10,3 km/h (2 Bft) 96,51 %
18.01.2016 08:00 -5,2 C -5,5 C -6,1 C 95 % 0 lf 1021,5 hPa 0,0 l/m 0,10 h 0,00 h 13 W/m 9,4 km/h (2 Bft) 95,31 %
18.01.2016 09:00 -5,1 C -4,9 C -5,5 C 95 % 0 lf 1021,1 hPa 0,0 l/m 1,00 h 0,00 h 68 W/m 12,2 km/h (2 Bft) 96,50 %
18.01.2016 10:00 -4,2 C -3,2 C -4,3 C 95 % 0 lf 1020,8 hPa 0,0 l/m 1,00 h 0,00 h 153 W/m 13,4 km/h (3 Bft) 95,94 %
18.01.2016 11:00 -2,5 C 1,2 C -3,1 C 94 % 0 lf 1020,3 hPa 0,0 l/m 1,00 h 0,03 h 257 W/m 15,8 km/h (3 Bft) 97,73 %
18.01.2016 12:00 -1,0 C 3,8 C -2,0 C 86 % 0 lf 1019,3 hPa 0,0 l/m 1,00 h 0,00 h 289 W/m 19,5 km/h (3 Bft) 97,08 %
18.01.2016 13:00 -0,1 C 4,7 C -1,6 C 79 % 0 lf 1018,5 hPa 0,0 l/m 1,00 h 0,00 h 255 W/m 19,2 km/h (3 Bft) 95,44 %
18.01.2016 14:00 0,3 C 4,6 C -1,1 C 74 % 0 lf 1017,8 hPa 0,0 l/m 1,00 h 0,00 h 184 W/m 17,8 km/h (3 Bft) 97,51 %
18.01.2016 15:00 -0,0 C 0,8 C -1,7 C 73 % 0 lf 1017,4 hPa 0,0 l/m 0,57 h 0,00 h 91 W/m 16,6 km/h (3 Bft) 93,81 %
18.01.2016 16:00 -0,7 C -0,8 C -2,6 C 74 % 0 lf 1017,1 hPa 0,0 l/m 0,00 h 0,00 h 24 W/m 10,8 km/h (2 Bft) 98,08 %
18.01.2016 17:00 -1,6 C -2,1 C -3,9 C 77 % 0 lf 1017,1 hPa 0,0 l/m 0,00 h 0,00 h 0 W/m 9,1 km/h (2 Bft) 96,72 %
18.01.2016 18:00 -2,2 C -2,2 C -4,0 C 79 % 0 lf 1017,0 hPa 0,0 l/m 0,00 h 0,00 h 0 W/m 9,5 km/h (2 Bft) 95,78 %
18.01.2016 19:00 -2,6 C -2,7 C -4,4 C 80 % 0 lf 1017,0 hPa 0,0 l/m 0,00 h 0,00 h 0 W/m 10,7 km/h (2 Bft) 95,52 %
18.01.2016 20:00 -2,7 C -2,6 C -4,1 C 81 % 0 lf 1016,7 hPa 0,0 l/m 0,00 h 0,00 h 0 W/m 14,9 km/h (3 Bft) 94,66 %
18.01.2016 21:00 -3,0 C -3,1 C -4,4 C 83 % 0 lf 1016,5 hPa 0,0 l/m 0,00 h 0,00 h 0 W/m 13,8 km/h (3 Bft) 96,37 %
18.01.2016 22:00 -3,2 C -3,1 C -4,5 C 84 % 0 lf 1016,3 hPa 0,0 l/m 0,00 h 0,00 h 0 W/m 16,0 km/h (3 Bft) 97,87 %
18.01.2016 23:00 -3,7 C -3,8 C -5,0 C 85 % 0 lf 1016,1 hPa 0,0 l/m 0,00 h 0,00 h 0 W/m 15,3 km/h (3 Bft) 94,94 %
19.01.2016 00:00 -4,0 C -4,0 C -5,3 C 85 % 0 lf 1015,8 hPa 0,0 l/m 0,00 h 0,00 h 0 W/m 14,9 km/h (3 Bft) 95,39 %
19.01.2016 01:00 -4,4 C -4,4 C -5,9 C 86 % 0 lf 1015,8 hPa 0,0 l/m 0,00 h 0,00 h 0 W/m 11,9 km/h (2 Bft) 96,57 %
19.01.2016 02:00 -4,8 C -4,8 C -6,1 C 87 % 0 lf 1015,6 hPa 0,0 l/m 0,00 h 0,00 h 0 W/m 14,5 km/h (3 Bft) 98,37 %
19.01.2016 03:00 -5,1 C -5,0 C -6,1 C 88 % 0 lf 1015,4 hPa 0,0 l/m 0,00 h 0,00 h 0 W/m 17,0 km/h (3 Bft) 94,23 %
19.01.2016 04:00 -5,4 C -5,4 C -6,5 C 88 % 0 lf 1015,3 hPa 0,0 l/m 0,00 h 0,00 h 0 W/m 13,3 km/h (3 Bft) 95,94 %
19.01.2016 05:00 -5,7 C -5,8 C -6,9 C 89 % 0 lf 1015,3 hPa 0,0 l/m 0,00 h 0,00 h 0 W/m 12,4 km/h (3 Bft) 96,37 %
19.01.2016 06:00 -6,1 C -6,1 C -7,2 C 89 % 0 lf 1015,2 hPa 0,0 l/m 0,00 h 0,00 h 0 W/m 9,8 km/h (2 Bft) 94,16 %
19.01.2016 07:00 -6,5 C -6,6 C -7,8 C 90 % 0 lf 1015,5 hPa 0,0 l/m 0,00 h 0,00 h 0 W/m 7,8 km/h (2 Bft) 96,58 %
19.01.2016 08:00 -6,8 C -6,8 C -7,9 C 90 % 0 lf 1016,0 hPa 0,0 l/m 0,00 h 0,00 h 12 W/m 7,7 km/h (2 Bft) 95,87 %
19.01.2016 09:00 -6,6 C -5,8 C -7,0 C 91 % 0 lf 1016,2 hPa 0,0 l/m 1,00 h 0,00 h 83 W/m 12,3 km/h (3 Bft) 94,81 %
19.01.2016 10:00 -5,4 C -2,8 C -5,5 C 92 % 0 lf 1016,4 hPa 0,0 l/m 1,00 h 0,00 h 172 W/m 11,6 km/h (2 Bft) 95,79 %
19.01.2016 11:00 -3,4 C 2,8 C -4,3 C 88 % 0 lf 1016,6 hPa 0,0 l/m 1,00 h 0,00 h 254 W/m 10,8 km/h (2 Bft) 94,68 %
19.01.2016 12:00 -2,0 C 3,1 C -3,2 C 81 % 0 lf 1016,2 hPa 0,0 l/m 1,00 h 0,00 h 287 W/m 12,8 km/h (3 Bft) 95,23 %
19.01.2016 13:00 -1,3 C 4,3 C -2,6 C 79 % 0 lf 1015,6 hPa 0,0 l/m 1,00 h 0,00 h 287 W/m 11,4 km/h (2 Bft) 95,37 %
19.01.2016 14:00 -0,7 C 4,9 C -2,2 C 77 % 0 lf 1015,4 hPa 0,0 l/m 1,00 h 0,00 h 195 W/m 8,4 km/h (2 Bft) 95,45 %
19.01.2016 15:00 -0,7 C 0,8 C -2,5 C 76 % 0 lf 1015,5 hPa 0,0 l/m 0,80 h 0,00 h 98 W/m 8,8 km/h (2 Bft) 96,59 %
19.01.2016 16:00 -1,5 C -1,8 C -3,4 C 78 % 0 lf 1015,7 hPa 0,0 l/m 0,00 h 0,00 h 20 W/m 8,0 km/h (2 Bft) 96,79 %
19.01.2016 17:00 -2,3 C -2,7 C -4,4 C 79 % 0 lf 1016,1 hPa 0,0 l/m 0,00 h 0,00 h 5 W/m 6,9 km/h (2 Bft) 97,87 %
19.01.2016 18:00 -2,7 C -2,6 C -4,1 C 82 % 0 lf 1016,3 hPa 0,0 l/m 0,00 h 0,00 h 0 W/m 4,7 km/h (1 Bft) 93,17 %
19.01.2016 19:00 -2,7 C -2,4 C -3,6 C 84 % 0 lf 1016,3 hPa 0,0 l/m 0,00 h 0,00 h 0 W/m 8,1 km/h (2 Bft) 96,87 %
19.01.2016 20:00 -2,5 C -2,0 C -3,1 C 85 % 0 lf 1016,5 hPa 0,0 l/m 0,00 h 0,00 h 0 W/m 9,5 km/h (2 Bft) 97,50 %
19.01.2016 21:00 -2,2 C -1,7 C -2,8 C 85 % 0 lf 1016,6 hPa 0,0 l/m 0,00 h 0,00 h 0 W/m 7,2 km/h (2 Bft) 96,15 %
19.01.2016 22:00 -2,2 C -1,7 C -2,8 C 85 % 0 lf 1016,7 hPa 0,0 l/m 0,00 h 0,00 h 0 W/m 8,3 km/h (2 Bft) 95,66 %
19.01.2016 23:00 -2,0 C -1,7 C -2,8 C 85 % 0 lf 1016,7 hPa 0,0 l/m 0,00 h 0,00 h 0 W/m 7,4 km/h (2 Bft) 95,66 %
20.01.2016 00:00 -1,8 C -1,5 C -2,6 C 87 % 0 lf 1016,8 hPa 0,0 l/m 0,00 h 0,00 h 0 W/m 6,4 km/h (2 Bft) 95,84 %
20.01.2016 01:00 -1,7 C -1,1 C -2,2 C 87 % 0 lf 1016,8 hPa 0,0 l/m 0,00 h 0,00 h 0 W/m 5,4 km/h (1 Bft) 97,58 %
20.01.2016 02:00 -1,5 C -1,1 C -2,2 C 84 % 0 lf 1016,9 hPa 0,0 l/m 0,00 h 0,00 h 0 W/m 7,8 km/h (2 Bft) 96,16 %
20.01.2016 03:00 -1,3 C -1,1 C -2,2 C 81 % 0 lf 1016,9 hPa 0,0 l/m 0,00 h 0,00 h 0 W/m 8,5 km/h (2 Bft) 94,59 %
20.01.2016 04:00 -1,2 C -1,1 C -2,2 C 80 % 0 lf 1017,0 hPa 0,0 l/m 0,00 h 0,00 h 0 W/m 4,5 km/h (1 Bft) 95,73 %
20.01.2016 05:00 -1,2 C -0,8 C -2,2 C 79 % 0 lf 1016,8 hPa 0,0 l/m 0,00 h 0,00 h 0 W/m 12,4 km/h (3 Bft) 97,87 %
20.01.2016 06:00 -1,0 C -0,6 C -2,2 C 77 % 0 lf 1016,7 hPa 0,0 l/m 0,00 h 0,00 h 0 W/m 12,8 km/h (3 Bft) 97,39 %
20.01.2016 07:00 -0,9 C -0,6 C -1,9 C 76 % 0 lf 1017,0 hPa 0,0 l/m 0,00 h 0,00 h 0 W/m 13,6 km/h (3 Bft) 94,37 %
20.01.2016 08:00 -0,8 C -0,6 C -1,7 C 76 % 0 lf 1017,5 hPa 0,0 l/m 0,00 h 0,00 h 7 W/m 11,6 km/h (2 Bft) 97,00 %
20.01.2016 09:00 -0,5 C 0,1 C -1,4 C 76 % 0 lf 1017,6 hPa 0,0 l/m 0,00 h 0,00 h 28 W/m 16,1 km/h (3 Bft) 94,82 %
20.01.2016 10:00 0,0 C 0,8 C -0,8 C 77 % 0 lf 1017,7 hPa 0,0 l/m 0,00 h 0,00 h 59 W/m 20,1 km/h (4 Bft) 97,06 %
20.01.2016 11:00 0,5 C 1,3 C -0,1 C 78 % 0 lf 1018,2 hPa 0,0 l/m 0,00 h 0,00 h 73 W/m 17,3 km/h (3 Bft) 96,16 %
20.01.2016 12:00 1,1 C 2,5 C 0,7 C 79 % 0 lf 1018,2 hPa 0,0 l/m 0,00 h 0,00 h 116 W/m 13,7 km/h (3 Bft) 93,27 %
20.01.2016 13:00 1,5 C 2,6 C 0,8 C 80 % 0 lf 1018,2 hPa 0,0 l/m 0,00 h 0,00 h 105 W/m 17,4 km/h (3 Bft) 97,08 %
20.01.2016 14:00 1,8 C 3,5 C 0,4 C 83 % 0 lf 1017,8 hPa 0,0 l/m 0,13 h 0,00 h 91 W/m 14,5 km/h (3 Bft) 98,29 %
20.01.2016 15:00 1,8 C 3,4 C 0,6 C 86 % 0 lf 1017,9 hPa 0,0 l/m 0,50 h 0,00 h 90 W/m 16,4 km/h (3 Bft) 91,74 %
20.01.2016 16:00 1,7 C 2,0 C 0,3 C 85 % 0 lf 1018,2 hPa 0,0 l/m 0,00 h 0,00 h 21 W/m 13,7 km/h (3 Bft) 97,64 %
20.01.2016 17:00 1,2 C 1,1 C -0,1 C 87 % 0 lf 1018,4 hPa 0,0 l/m 0,00 h 0,00 h 5 W/m 12,6 km/h (3 Bft) 97,15 %
20.01.2016 18:00 0,9 C 1,1 C -0,6 C 88 % 0 lf 1018,9 hPa 0,0 l/m 0,00 h 0,00 h 0 W/m 12,6 km/h (3 Bft) 95,27 %
20.01.2016 19:00 0,7 C 0,7 C -0,6 C 89 % 0 lf 1019,3 hPa 0,0 l/m 0,00 h 0,00 h 0 W/m 10,7 km/h (2 Bft) 96,52 %
20.01.2016 20:00 0,6 C 0,6 C -0,6 C 90 % 0 lf 1020,0 hPa 0,0 l/m 0,00 h 0,00 h 0 W/m 9,2 km/h (2 Bft) 95,16 %
20.01.2016 21:00 0,4 C 0,2 C -1,0 C 91 % 0 lf 1020,4 hPa 0,0 l/m 0,00 h 0,00 h 0 W/m 9,7 km/h (2 Bft) 95,41 %
20.01.2016 22:00 -0,1 C -1,0 C -2,2 C 91 % 1 lf 1020,7 hPa 0,0 l/m 0,00 h 0,00 h 0 W/m 7,2 km/h (2 Bft) 97,38 %
20.01.2016 23:00 -0,9 C -2,2 C -3,2 C 91 % 1 lf 1021,0 hPa 0,0 l/m 0,00 h 0,00 h 0 W/m 5,7 km/h (1 Bft) 97,05 %
21.01.2016 00:00 -1,7 C -2,7 C -3,9 C 91 % 1 lf 1021,5 hPa 0,0 l/m 0,00 h 0,00 h 0 W/m 1,9 km/h (1 Bft) 93,17 %
21.01.2016 01:00 -2,1 C -1,8 C -3,1 C 92 % 1 lf 1022,1 hPa 0,0 l/m 0,00 h 0,00 h 0 W/m 2,4 km/h (1 Bft) 95,38 %
21.01.2016 02:00 -1,4 C -0,7 C -2,0 C 94 % 3 lf 1022,6 hPa 0,0 l/m 0,00 h 0,00 h 0 W/m 1,3 km/h (1 Bft) 97,57 %
21.01.2016 03:00 -0,9 C -0,3 C -1,7 C 95 % 4 lf 1022,8 hPa 0,0 l/m 0,00 h 0,00 h 0 W/m 0,0 km/h (0 Bft) 96,31 %
21.01.2016 04:00 -0,5 C 0,0 C -1,4 C 95 % 4 lf 1022,9 hPa 0,0 l/m 0,00 h 0,00 h 0 W/m 0,9 km/h (0 Bft) 95,82 %
21.01.2016 05:00 -0,3 C 0,2 C -1,1 C 95 % 1 lf 1023,3 hPa 0,0 l/m 0,00 h 0,00 h 0 W/m 3,4 km/h (1 Bft) 96,30 %
21.01.2016 06:00 -0,0 C 0,6 C -1,1 C 96 % 1 lf 1023,5 hPa 0,0 l/m 0,00 h 0,00 h 0 W/m 0,4 km/h (0 Bft) 94,95 %
21.01.2016 07:00 0,1 C 0,6 C -1,1 C 96 % 1 lf 1024,2 hPa 0,0 l/m 0,00 h 0,00 h 0 W/m 1,6 km/h (1 Bft) 97,37 %
21.01.2016 08:00 0,2 C 0,6 C -1,4 C 96 % 1 lf 1024,8 hPa 0,0 l/m 0,00 h 0,00 h 9 W/m 2,7 km/h (1 Bft) 98,72 %
21.01.2016 09:00 0,3 C 1,2 C -0,4 C 96 % 0 lf 1025,4 hPa 0,0 l/m 0,00 h 0,00 h 42 W/m 4,8 km/h (1 Bft) 92,60 %
21.01.2016 10:00 0,6 C 2,5 C 0,2 C 96 % 0 lf 1025,8 hPa 0,0 l/m 0,30 h 0,00 h 98 W/m 5,1 km/h (1 Bft) 97,86 %
21.01.2016 11:00 2,1 C 8,2 C 1,3 C 96 % 0 lf 1026,1 hPa 0,0 l/m 1,00 h 0,00 h 240 W/m 9,4 km/h (2 Bft) 97,08 %
21.01.2016 12:00 3,8 C 8,4 C 2,5 C 86 % 0 lf 1025,9 hPa 0,0 l/m 0,90 h 0,00 h 265 W/m 13,5 km/h (3 Bft) 91,87 %
21.01.2016 13:00 3,8 C 5,4 C 2,8 C 81 % 0 lf 1025,7 hPa 0,0 l/m 0,30 h 0,00 h 154 W/m 13,6 km/h (3 Bft) 97,49 %
21.01.2016 14:00 4,0 C 5,6 C 2,8 C 81 % 0 lf 1025,3 hPa 0,0 l/m 0,47 h 0,00 h 134 W/m 13,1 km/h (3 Bft) 95,33 %
21.01.2016 15:00 3,6 C 3,9 C 2,3 C 82 % 0 lf 1025,6 hPa 0,0 l/m 0,00 h 0,00 h 63 W/m 12,2 km/h (2 Bft) 96,41 %
21.01.2016 16:00 2,8 C 2,6 C 1,0 C 83 % 0 lf 1026,0 hPa 0,0 l/m 0,17 h 0,00 h 27 W/m 11,8 km/h (2 Bft) 96,81 %
21.01.2016 17:00 1,7 C 1,2 C -0,7 C 84 % 0 lf 1026,4 hPa 0,0 l/m 0,00 h 0,00 h 7 W/m 9,2 km/h (2 Bft) 96,92 %
21.01.2016 18:00 0,6 C 0,2 C -1,9 C 86 % 0 lf 1026,7 hPa 0,0 l/m 0,00 h 0,00 h 0 W/m 8,8 km/h (2 Bft) 93,68 %
21.01.2016 19:00 -0,1 C -0,2 C -2,6 C 88 % 0 lf 1026,8 hPa 0,0 l/m 0,00 h 0,00 h 0 W/m 7,6 km/h (2 Bft) 96,87 %
21.01.2016 20:00 -0,6 C -0,8 C -2,5 C 89 % 0 lf 1027,1 hPa 0,0 l/m 0,00 h 0,00 h 0 W/m 7,5 km/h (2 Bft) 96,58 %
21.01.2016 21:00 -1,0 C -1,2 C -2,9 C 90 % 1 lf 1027,3 hPa 0,0 l/m 0,00 h 0,00 h 0 W/m 7,9 km/h (2 Bft) 96,01 %
21.01.2016 22:00 -1,4 C -1,6 C -3,5 C 91 % 1 lf 1027,4 hPa 0,0 l/m 0,00 h 0,00 h 0 W/m 7,6 km/h (2 Bft) 96,16 %
21.01.2016 23:00 -1,5 C -1,2 C -2,9 C 92 % 1 lf 1027,4 hPa 0,0 l/m 0,00 h 0,00 h 0 W/m 11,4 km/h (2 Bft) 95,58 %
22.01.2016 00:00 -1,5 C -1,3 C -2,8 C 93 % 1 lf 1027,4 hPa 0,0 l/m 0,00 h 0,00 h 0 W/m 10,3 km/h (2 Bft) 92,55 %
22.01.2016 01:00 -1,5 C -1,2 C -2,8 C 93 % 0 lf 1027,4 hPa 0,0 l/m 0,00 h 0,00 h 0 W/m 14,1 km/h (3 Bft) 99,00 %
22.01.2016 02:00 -1,7 C -1,7 C -3,0 C 92 % 0 lf 1027,3 hPa 0,0 l/m 0,00 h 0,00 h 0 W/m 14,8 km/h (3 Bft) 95,09 %
22.01.2016 03:00 -2,0 C -2,1 C -3,3 C 92 % 1 lf 1027,3 hPa 0,0 l/m 0,00 h 0,00 h 0 W/m 14,1 km/h (3 Bft) 94,73 %
22.01.2016 04:00 -2,4 C -2,3 C -3,8 C 93 % 1 lf 1027,1 hPa 0,0 l/m 0,00 h 0,00 h 0 W/m 15,9 km/h (3 Bft) 96,37 %
22.01.2016 05:00 -2,7 C -2,6 C -3,9 C 93 % 0 lf 1026,8 hPa 0,0 l/m 0,00 h 0,00 h 0 W/m 17,4 km/h (3 Bft) 97,58 %
22.01.2016 06:00 -2,8 C -2,8 C -3,9 C 93 % 0 lf 1026,9 hPa 0,0 l/m 0,00 h 0,00 h 0 W/m 16,9 km/h (3 Bft) 95,87 %
22.01.2016 07:00 -3,0 C -2,8 C -3,9 C 93 % 0 lf 1026,8 hPa 0,0 l/m 0,00 h 0,00 h 0 W/m 19,2 km/h (3 Bft) 94,95 %
22.01.2016 08:00 -3,2 C -2,8 C -4,0 C 92 % 0 lf 1026,4 hPa 0,0 l/m 0,23 h 0,00 h 14 W/m 20,0 km/h (4 Bft) 96,80 %
22.01.2016 09:00 -3,0 C -2,3 C -3,6 C 92 % 0 lf 1026,1 hPa 0,0 l/m 0,97 h 0,00 h 73 W/m 21,0 km/h (4 Bft) 94,51 %
22.01.2016 10:00 -2,1 C -0,5 C -2,4 C 92 % 0 lf 1025,7 hPa 0,0 l/m 0,90 h 0,00 h 156 W/m 23,5 km/h (4 Bft) 98,36 %
22.01.2016 11:00 -0,6 C 3,6 C -1,5 C 87 % 0 lf 1025,2 hPa 0,0 l/m 1,00 h 0,00 h 252 W/m 25,2 km/h (4 Bft) 96,23 %
22.01.2016 12:00 0,6 C 4,0 C -0,4 C 82 % 0 lf 1024,5 hPa 0,0 l/m 1,00 h 0,00 h 288 W/m 25,7 km/h (4 Bft) 94,99 %
22.01.2016 13:00 1,3 C 4,0 C 0,2 C 78 % 0 lf 1023,7 hPa 0,0 l/m 0,70 h 0,00 h 215 W/m 24,8 km/h (4 Bft) 94,30 %
22.01.2016 14:00 1,5 C 2,8 C 0,7 C 77 % 0 lf 1023,3 hPa 0,2 l/m 0,33 h 0,00 h 126 W/m 23,5 km/h (4 Bft) 96,45 %
22.01.2016 15:00 1,8 C 2,8 C 1,1 C 78 % 0 lf 1022,7 hPa 0,0 l/m 0,70 h 0,00 h 102 W/m 22,0 km/h (4 Bft) 97,85 %
22.01.2016 16:00 1,8 C 2,1 C 0,7 C 78 % 0 lf 1022,2 hPa 0,0 l/m 0,20 h 0,00 h 28 W/m 23,3 km/h (4 Bft) 95,30 %
22.01.2016 17:00 1,4 C 1,7 C 0,2 C 80 % 0 lf 1021,9 hPa 0,0 l/m 0,00 h 0,00 h 1 W/m 27,6 km/h (4 Bft) 94,33 %
22.01.2016 18:00 1,1 C 1,2 C 0,0 C 81 % 0 lf 1021,8 hPa 0,0 l/m 0,00 h 0,00 h 0 W/m 29,0 km/h (5 Bft) 97,66 %
22.01.2016 19:00 0,7 C 0,2 C -0,8 C 84 % 3 lf 1021,9 hPa 1,2 l/m 0,00 h 0,90 h 0 W/m 27,8 km/h (4 Bft) 95,87 %
22.01.2016 20:00 0,1 C 0,0 C -1,1 C 91 % 15 lf 1021,6 hPa 1,6 l/m 0,00 h 1,00 h 0 W/m 25,4 km/h (4 Bft) 94,82 %
22.01.2016 21:00 -0,1 C 0,0 C -1,1 C 94 % 15 lf 1021,4 hPa 1,2 l/m 0,00 h 0,70 h 0 W/m 23,2 km/h (4 Bft) 94,14 %
22.01.2016 22:00 0,0 C 0,0 C -1,1 C 95 % 15 lf 1021,5 hPa 0,8 l/m 0,00 h 0,60 h 0 W/m 18,6 km/h (3 Bft) 96,46 %
22.01.2016 23:00 0,3 C 0,0 C -1,1 C 96 % 15 lf 1021,6 hPa 0,8 l/m 0,00 h 0,33 h 0 W/m 12,6 km/h (3 Bft) 96,51 %
23.01.2016 00:00 0,7 C 0,9 C -0,2 C 97 % 15 lf 1021,8 hPa 0,2 l/m 0,00 h 0,00 h 0 W/m 10,5 km/h (2 Bft) 95,83 %
23.01.2016 01:00 2,2 C 3,1 C 1,5 C 97 % 15 lf 1022,2 hPa 0,0 l/m 0,00 h 0,00 h 0 W/m 15,5 km/h (3 Bft) 96,28 %
23.01.2016 02:00 4,3 C 4,4 C 2,9 C 98 % 15 lf 1022,8 hPa 0,0 l/m 0,00 h 0,00 h 0 W/m 22,2 km/h (4 Bft) 93,73 %
23.01.2016 03:00 4,7 C 4,9 C 3,3 C 98 % 15 lf 1023,7 hPa 0,0 l/m 0,00 h 0,00 h 0 W/m 19,4 km/h (3 Bft) 97,36 %
23.01.2016 04:00 5,0 C 5,1 C 3,5 C 98 % 15 lf 1024,8 hPa 0,0 l/m 0,00 h 0,00 h 0 W/m 18,3 km/h (3 Bft) 97,08 %
23.01.2016 05:00 5,2 C 5,6 C 3,9 C 98 % 15 lf 1025,6 hPa 0,0 l/m 0,00 h 0,00 h 0 W/m 20,6 km/h (4 Bft) 93,53 %
23.01.2016 06:00 5,4 C 5,6 C 3,9 C 99 % 15 lf 1026,5 hPa 0,0 l/m 0,00 h 0,00 h 0 W/m 18,0 km/h (3 Bft) 96,94 %
23.01.2016 07:00 5,6 C 5,6 C 4,0 C 99 % 15 lf 1027,7 hPa 0,0 l/m 0,00 h 0,00 h 0 W/m 15,8 km/h (3 Bft) 97,93 %
23.01.2016 08:00 5,7 C 6,0 C 4,4 C 99 % 15 lf 1028,8 hPa 0,0 l/m 0,00 h 0,00 h 8 W/m 14,3 km/h (3 Bft) 94,65 %
23.01.2016 09:00 5,9 C 6,4 C 4,6 C 99 % 15 lf 1029,9 hPa 0,0 l/m 0,00 h 0,00 h 29 W/m 14,3 km/h (3 Bft) 95,66 %
23.01.2016 10:00 6,3 C 7,0 C 5,2 C 99 % 10 lf 1030,4 hPa 0,0 l/m 0,00 h 0,00 h 71 W/m 13,9 km/h (3 Bft) 96,51 %
23.01.2016 11:00 6,7 C 7,8 C 5,6 C 99 % 0 lf 1030,8 hPa 0,0 l/m 0,00 h 0,00 h 87 W/m 14,4 km/h (3 Bft) 95,02 %
23.01.2016 12:00 6,7 C 7,5 C 5,6 C 99 % 1 lf 1031,4 hPa 0,0 l/m 0,00 h 0,00 h 61 W/m 16,4 km/h (3 Bft) 98,64 %
23.01.2016 13:00 6,8 C 7,5 C 5,7 C 99 % 1 lf 1031,7 hPa 0,0 l/m 0,00 h 0,00 h 63 W/m 16,7 km/h (3 Bft) 94,16 %
23.01.2016 14:00 6,8 C 7,3 C 5,7 C 99 % 1 lf 1032,0 hPa 0,0 l/m 0,00 h 0,00 h 47 W/m 15,7 km/h (3 Bft) 96,03 %
23.01.2016 15:00 6,9 C 7,3 C 5,8 C 98 % 1 lf 1032,5 hPa 0,0 l/m 0,00 h 0,00 h 33 W/m 16,9 km/h (3 Bft) 97,58 %
23.01.2016 16:00 6,9 C 7,2 C 5,6 C 98 % 1 lf 1032,9 hPa 0,0 l/m 0,00 h 0,00 h 18 W/m 12,5 km/h (3 Bft) 96,44 %
23.01.2016 17:00 6,8 C 7,0 C 5,1 C 98 % 1 lf 1033,1 hPa 0,0 l/m 0,00 h 0,00 h 5 W/m 8,5 km/h (2 Bft) 94,81 %
23.01.2016 18:00 6,4 C 6,1 C 4,1 C 97 % 3 lf 1033,1 hPa 0,0 l/m 0,00 h 0,00 h 0 W/m 7,6 km/h (2 Bft) 97,08 %
23.01.2016 19:00 6,2 C 6,5 C 4,4 C 97 % 1 lf 1033,3 hPa 0,0 l/m 0,00 h 0,00 h 0 W/m 8,0 km/h (2 Bft) 95,65 %
23.01.2016 20:00 6,2 C 6,7 C 4,7 C 97 % 1 lf 1033,8 hPa 0,0 l/m 0,00 h 0,00 h 0 W/m 9,2 km/h (2 Bft) 96,72 %
23.01.2016 21:00 6,2 C 6,6 C 4,9 C 97 % 0 lf 1033,8 hPa 0,0 l/m 0,00 h 0,00 h 0 W/m 8,6 km/h (2 Bft) 95,94 %
23.01.2016 22:00 5,9 C 5,9 C 4,2 C 96 % 1 lf 1033,7 hPa 0,0 l/m 0,00 h 0,00 h 0 W/m 9,3 km/h (2 Bft) 95,59 %
23.01.2016 23:00 5,3 C 5,5 C 3,7 C 95 % 0 lf 1033,3 hPa 0,0 l/m 0,00 h 0,00 h 0 W/m 12,4 km/h (3 Bft) 97,08 %
24.01.2016 00:00 4,8 C 4,9 C 3,1 C 94 % 0 lf 1032,7 hPa 0,0 l/m 0,00 h 0,00 h 0 W/m 14,1 km/h (3 Bft) 95,74 %
24.01.2016 01:00 4,4 C 4,6 C 3,1 C 93 % 0 lf 1032,0 hPa 0,0 l/m 0,00 h 0,00 h 0 W/m 20,5 km/h (4 Bft) 98,36 %
24.01.2016 02:00 4,3 C 4,3 C 2,7 C 92 % 0 lf 1031,9 hPa 0,0 l/m 0,00 h 0,00 h 0 W/m 10,9 km/h (2 Bft) 92,73 %
24.01.2016 03:00 3,7 C 3,5 C 2,0 C 92 % 0 lf 1032,1 hPa 0,0 l/m 0,00 h 0,00 h 0 W/m 8,0 km/h (2 Bft) 97,58 %
24.01.2016 04:00 3,0 C 2,9 C 1,4 C 93 % 1 lf 1031,7 hPa 0,0 l/m 0,00 h 0,00 h 0 W/m 9,4 km/h (2 Bft) 98,10 %
24.01.2016 05:00 3,0 C 3,3 C 2,0 C 94 % 0 lf 1030,8 hPa 0,0 l/m 0,00 h 0,00 h 0 W/m 15,7 km/h (3 Bft) 94,18 %
24.01.2016 06:00 3,3 C 3,5 C 2,1 C 94 % 0 lf 1030,5 hPa 0,2 l/m 0,00 h 0,47 h 0 W/m 12,3 km/h (3 Bft) 95,91 %
24.01.2016 07:00 3,4 C 3,3 C 2,0 C 95 % 0 lf 1030,0 hPa 0,2 l/m 0,00 h 0,07 h 0 W/m 12,0 km/h (2 Bft) 96,16 %
24.01.2016 08:00 3,6 C 3,6 C 2,3 C 96 % 0 lf 1029,8 hPa 0,0 l/m 0,00 h 0,00 h 8 W/m 13,2 km/h (3 Bft) 95,65 %
24.01.2016 09:00 4,2 C 4,6 C 3,1 C 96 % 0 lf 1029,6 hPa 0,0 l/m 0,00 h 0,10 h 46 W/m 17,1 km/h (3 Bft) 97,73 %
24.01.2016 10:00 4,9 C 5,0 C 3,8 C 95 % 5 lf 1029,6 hPa 0,2 l/m 0,00 h 0,57 h 57 W/m 11,7 km/h (2 Bft) 95,46 %
24.01.2016 11:00 5,6 C 5,9 C 4,6 C 96 % 2 lf 1029,6 hPa 0,0 l/m 0,00 h 0,07 h 69 W/m 10,3 km/h (2 Bft) 94,45 %
24.01.2016 12:00 6,4 C 6,7 C 5,2 C 97 % 6 lf 1029,2 hPa 0,0 l/m 0,00 h 0,00 h 45 W/m 11,1 km/h (2 Bft) 97,99 %
24.01.2016 13:00 7,0 C 7,1 C 5,8 C 97 % 15 lf 1028,9 hPa 0,0 l/m 0,00 h 0,23 h 43 W/m 12,1 km/h (2 Bft) 96,30 %
24.01.2016 14:00 7,4 C 7,2 C 6,1 C 98 % 15 lf 1028,4 hPa 0,2 l/m 0,00 h 0,00 h 23 W/m 12,6 km/h (3 Bft) 95,77 %
24.01.2016 15:00 7,6 C 7,8 C 6,1 C 98 % 15 lf 1028,1 hPa 0,0 l/m 0,00 h 0,43 h 14 W/m 12,4 km/h (3 Bft) 95,09 %
24.01.2016 16:00 7,8 C 7,8 C 6,1 C 98 % 15 lf 1028,1 hPa 0,2 l/m 0,00 h 0,33 h 9 W/m 10,9 km/h (2 Bft) 97,16 %
24.01.2016 17:00 8,0 C 8,0 C 6,5 C 98 % 15 lf 1028,2 hPa 0,0 l/m 0,00 h 0,00 h 0 W/m 10,4 km/h (2 Bft) 96,24 %
24.01.2016 18:00 8,2 C 8,3 C 6,7 C 98 % 15 lf 1028,2 hPa 0,0 l/m 0,00 h 0,00 h 0 W/m 12,6 km/h (3 Bft) 95,93 %
24.01.2016 19:00 8,4 C 8,3 C 6,7 C 98 % 15 lf 1028,4 hPa 0,0 l/m 0,00 h 0,00 h 0 W/m 13,7 km/h (3 Bft) 96,05 %
24.01.2016 20:00 8,6 C 8,8 C 7,2 C 99 % 4 lf 1028,2 hPa 0,0 l/m 0,00 h 0,00 h 0 W/m 16,7 km/h (3 Bft) 96,02 %
24.01.2016 21:00 9,0 C 9,2 C 7,4 C 99 % 1 lf 1028,0 hPa 0,0 l/m 0,00 h 0,00 h 0 W/m 17,1 km/h (3 Bft) 96,58 %
24.01.2016 22:00 9,3 C 9,4 C 7,8 C 99 % 1 lf 1028,0 hPa 0,0 l/m 0,00 h 0,00 h 0 W/m 14,5 km/h (3 Bft) 96,61 %
24.01.2016 23:00 9,4 C 9,4 C 7,8 C 99 % 1 lf 1028,0 hPa 0,0 l/m 0,00 h 0,00 h 0 W/m 15,6 km/h (3 Bft) 95,23 %
Min-Datum _ 19.01.16 18.01.16 19.01.16 18.01.16 18.01.16 19.01.16 - - - - 18.01.16 22.01.16
_ Min-Zeit 08:32 03:26 07:40 15:00 00:00 05:14 - - - - 00:00 00:02
Minimum _ -6,9 C -7,2 C -8,3 C 72 % 0 lf 1015,1 hPa - - - - 0,0 km/h (0 Bft) 7,14 %
Max-Datum _ 24.01.16 21.01.16 24.01.16 23.01.16 22.01.16 23.01.16 22.01.16 18.01.16 18.01.16 19.01.16 22.01.16 18.01.16
_ Max-Zeit 23:14 12:36 21:42 04:44 19:58 20:38 20:04 08:52 11:58 13:50 19:08 00:30
Maximum _ 9,4 C 11,1 C 7,8 C 99 % 15 lf 1034,0 hPa 1,6 l/m 0,03 h 0,03 h 317 W/m 39,7 km/h
S (6 Bft)
100,00 %
Durchschnitt _ 0,6 C 1,2 C -0,6 C 90 % 2 lf 1023,3 hPa #7,0 l/m #23:16 h #5:50 h 94 W/m 12,4 km/h (3 Bft) 96,05 %
© 2016 W. Hausmann